Iridium Next SV140

operational
NORAD ID: 43252 Int'l Des: 2018-030 Owner: IRIDS Country: US Constellation: Iridium NEXT
LEOCIRCULARPOLAR

About Iridium Next SV140

Description loading...

Live Position

Loading 3D Globe...

Upcoming Passes

Altitude History

Altitude vs Time

uPlot chart will show altitude changes over time

Two-Line Element Set

1 43252U 18030D 26062.22684507 .00000026 00000-0 21013-5 0 9998
2 43252 86.4015 334.7456 0002043 83.4574 276.6854 14.34217682415000
Epoch: Mar 3, 2026 • Age: 30 hours

Current Status

Altitude 794.3 km
Velocity 7.45 km/s
Sub-Earth Point -40.33°S, 93.3°W
Launch Date Mar 30, 2018
Age 7.9 years
Type communications

Technical Details

Classification Payload
Mass 860.00 kg
Dry Mass 700.00 kg
Total Mass 860.00 kg
Length 3.10 m
Diameter 1.50 m
Span 9.40 m
Shape Half Hex Prism+2 pan
Manufacturer OATKGA
Bus Type EliteBus
Phase Status In Orbit
Owner/State IRIDS/US

Large Constellations

Loading constellations...